owner,sensor,date,latitude,longitude,vertical_datum,wind_speed,wind_to_direction,wind_speed_of_gust,qcFlag 
TCOON,ioos:station:TCOON:518:1,2014-06-01T00:00:00Z,29.5150,-94.5133,0.0,3.0,117.0,3.8,'1111122,1111122,1111122' 
TCOON,ioos:station:TCOON:518:1,2014-06-01T00:06:00Z,29.5150,-94.5133,0.0,3.3,106.0,3.9,'11111222,11111222,11111222' 
TCOON,ioos:station:TCOON:518:1,2014-06-01T00:12:00Z,29.5150,-94.5133,0.0,2.6,132.0,3.7,'11111222,11111222,11111222' 
TCOON,ioos:station:TCOON:518:1,2014-06-01T00:18:00Z,29.5150,-94.5133,0.0,3.0,125.0,3.7,'11111222,11111222,11111222' 
TCOON,ioos:station:TCOON:518:1,2014-06-01T00:24:00Z,29.5150,-94.5133,0.0,3.0,115.0,4.1,'11111222,11111222,11111222' 
TCOON,ioos:station:TCOON:518:1,2014-06-01T00:30:00Z,29.5150,-94.5133,0.0,2.5,124.0,3.7,'11111222,11111222,11111222' 
TCOON,ioos:station:TCOON:518:1,2014-06-01T00:36:00Z,29.5150,-94.5133,0.0,2.6,146.0,3.2,'11111222,11111222,11111222' 
TCOON,ioos:station:TCOON:518:1,2014-06-01T00:42:00Z,29.5150,-94.5133,0.0,2.4,125.0,2.6,'11111222,11111222,11111222' 
TCOON,ioos:station:TCOON:518:1,2014-06-01T00:48:00Z,29.5150,-94.5133,0.0,2.4,120.0,3.0,'11111222,11111222,11111222' 
TCOON,ioos:station:TCOON:518:1,2014-06-01T00:54:00Z,29.5150,-94.5133,0.0,1.8,142.0,2.5,'11111222,11111222,11111222' 
TCOON,ioos:station:TCOON:518:1,2014-06-01T01:00:00Z,29.5150,-94.5133,0.0,1.8,142.0,2.5,'1111122,1111122,1111122' 
TCOON,ioos:station:TCOON:518:1,2014-06-01T01:06:00Z,29.5150,-94.5133,0.0,2.3,141.0,2.8,'11111222,11111222,11111222' 
TCOON,ioos:station:TCOON:518:1,2014-06-01T01:12:00Z,29.5150,-94.5133,0.0,2.9,135.0,3.5,'11111222,11111222,11111222' 
TCOON,ioos:station:TCOON:518:1,2014-06-01T01:18:00Z,29.5150,-94.5133,0.0,2.5,133.0,3.8,'11111222,11111222,11111222' 
TCOON,ioos:station:TCOON:518:1,2014-06-01T01:24:00Z,29.5150,-94.5133,0.0,2.0,129.0,2.9,'11111222,11111222,11111222' 
TCOON,ioos:station:TCOON:518:1,2014-06-01T01:30:00Z,29.5150,-94.5133,0.0,2.1,131.0,3.1,'11111222,11111222,11111222' 
TCOON,ioos:station:TCOON:518:1,2014-06-01T01:36:00Z,29.5150,-94.5133,0.0,3.0,100.0,3.7,'11111222,11111222,11111222' 
TCOON,ioos:station:TCOON:518:1,2014-06-01T01:42:00Z,29.5150,-94.5133,0.0,2.4,105.0,3.4,'11111222,11111222,11111222' 
TCOON,ioos:station:TCOON:518:1,2014-06-01T01:48:00Z,29.5150,-94.5133,0.0,2.3,108.0,3.4,'11111222,11111222,11111222' 
TCOON,ioos:station:TCOON:518:1,2014-06-01T01:54:00Z,29.5150,-94.5133,0.0,1.9,108.0,2.6,'11111222,11111222,11111222' 
TCOON,ioos:station:TCOON:518:1,2014-06-01T02:00:00Z,29.5150,-94.5133,0.0,1.9,108.0,2.6,'1111122,1111122,1111122' 
TCOON,ioos:station:TCOON:518:1,2014-06-01T02:06:00Z,29.5150,-94.5133,0.0,2.4,97.0,3.0,'11111222,11111222,11111222' 
TCOON,ioos:station:TCOON:518:1,2014-06-01T02:12:00Z,29.5150,-94.5133,0.0,2.4,98.0,3.1,'11111222,11111222,11111222' 
TCOON,ioos:station:TCOON:518:1,2014-06-01T02:18:00Z,29.5150,-94.5133,0.0,2.6,91.0,3.3,'11111222,11111222,11111222' 
TCOON,ioos:station:TCOON:518:1,2014-06-01T02:24:00Z,29.5150,-94.5133,0.0,3.2,99.0,3.8,'11111222,11111222,11111222' 
TCOON,ioos:station:TCOON:518:1,2014-06-01T02:30:00Z,29.5150,-94.5133,0.0,2.9,112.0,3.3,'11111222,11111222,11111222' 
TCOON,ioos:station:TCOON:518:1,2014-06-01T02:36:00Z,29.5150,-94.5133,0.0,3.2,95.0,3.9,'11111222,11111222,11111222' 
TCOON,ioos:station:TCOON:518:1,2014-06-01T02:42:00Z,29.5150,-94.5133,0.0,3.5,104.0,4.5,'11111222,11111222,11111222' 
TCOON,ioos:station:TCOON:518:1,2014-06-01T02:48:00Z,29.5150,-94.5133,0.0,3.3,110.0,4.4,'11111222,11111222,11111222' 
TCOON,ioos:station:TCOON:518:1,2014-06-01T02:54:00Z,29.5150,-94.5133,0.0,3.2,101.0,3.9,'11111222,11111222,11111222' 
TCOON,ioos:station:TCOON:518:1,2014-06-01T03:00:00Z,29.5150,-94.5133,0.0,3.2,101.0,3.9,'1111122,1111122,1111122' 
TCOON,ioos:station:TCOON:518:1,2014-06-01T03:06:00Z,29.5150,-94.5133,0.0,2.5,87.0,4.5,'11111222,11111222,11111222' 
TCOON,ioos:station:TCOON:518:1,2014-06-01T03:12:00Z,29.5150,-94.5133,0.0,2.5,65.0,3.6,'11111222,11111222,11111222' 
TCOON,ioos:station:TCOON:518:1,2014-06-01T03:18:00Z,29.5150,-94.5133,0.0,1.8,85.0,2.9,'11111222,11111222,11111222' 
TCOON,ioos:station:TCOON:518:1,2014-06-01T03:24:00Z,29.5150,-94.5133,0.0,3.6,106.0,4.0,'11111222,11111222,11111222' 
TCOON,ioos:station:TCOON:518:1,2014-06-01T03:30:00Z,29.5150,-94.5133,0.0,3.6,110.0,4.6,'11111222,11111222,11111222' 
TCOON,ioos:station:TCOON:518:1,2014-06-01T03:36:00Z,29.5150,-94.5133,0.0,3.3,115.0,4.2,'11111222,11111222,11111222' 
TCOON,ioos:station:TCOON:518:1,2014-06-01T03:42:00Z,29.5150,-94.5133,0.0,3.2,103.0,4.0,'11111222,11111222,11111222' 
TCOON,ioos:station:TCOON:518:1,2014-06-01T03:48:00Z,29.5150,-94.5133,0.0,2.9,114.0,3.5,'11111222,11111222,11111222' 
TCOON,ioos:station:TCOON:518:1,2014-06-01T03:54:00Z,29.5150,-94.5133,0.0,2.7,107.0,4.6,'11111222,11111222,11111222' 
TCOON,ioos:station:TCOON:518:1,2014-06-01T04:00:00Z,29.5150,-94.5133,0.0,2.7,107.0,4.6,'1111122,1111122,1111122' 
TCOON,ioos:station:TCOON:518:1,2014-06-01T04:06:00Z,29.5150,-94.5133,0.0,2.7,121.0,3.0,'11111222,11111222,11111222' 
TCOON,ioos:station:TCOON:518:1,2014-06-01T04:12:00Z,29.5150,-94.5133,0.0,3.2,105.0,3.7,'11111222,11111222,11111222' 
TCOON,ioos:station:TCOON:518:1,2014-06-01T04:18:00Z,29.5150,-94.5133,0.0,3.6,116.0,4.0,'11111222,11111222,11111222' 
TCOON,ioos:station:TCOON:518:1,2014-06-01T04:24:00Z,29.5150,-94.5133,0.0,3.6,117.0,4.1,'11111222,11111222,11111222' 
TCOON,ioos:station:TCOON:518:1,2014-06-01T04:30:00Z,29.5150,-94.5133,0.0,3.3,117.0,4.0,'11111222,11111222,11111222' 
TCOON,ioos:station:TCOON:518:1,2014-06-01T04:36:00Z,29.5150,-94.5133,0.0,3.9,104.0,4.4,'11111222,11111222,11111222' 
TCOON,ioos:station:TCOON:518:1,2014-06-01T04:42:00Z,29.5150,-94.5133,0.0,3.3,97.0,4.7,'11111222,11111222,11111222' 
TCOON,ioos:station:TCOON:518:1,2014-06-01T04:48:00Z,29.5150,-94.5133,0.0,3.0,65.0,3.5,'11111222,11111222,11111222' 
TCOON,ioos:station:TCOON:518:1,2014-06-01T04:54:00Z,29.5150,-94.5133,0.0,3.1,64.0,3.8,'11111222,11111222,11111222' 
TCOON,ioos:station:TCOON:518:1,2014-06-01T05:00:00Z,29.5150,-94.5133,0.0,3.1,64.0,3.8,'1111122,1111122,1111122' 
TCOON,ioos:station:TCOON:518:1,2014-06-01T05:06:00Z,29.5150,-94.5133,0.0,4.1,106.0,4.9,'11111222,11111222,11111222' 
TCOON,ioos:station:TCOON:518:1,2014-06-01T05:12:00Z,29.5150,-94.5133,0.0,4.6,111.0,5.4,'11111222,11111222,11111222' 
TCOON,ioos:station:TCOON:518:1,2014-06-01T05:18:00Z,29.5150,-94.5133,0.0,4.6,110.0,5.3,'11111222,11111222,11111222' 
TCOON,ioos:station:TCOON:518:1,2014-06-01T05:24:00Z,29.5150,-94.5133,0.0,4.7,101.0,5.3,'11111222,11111222,11111222' 
TCOON,ioos:station:TCOON:518:1,2014-06-01T05:30:00Z,29.5150,-94.5133,0.0,4.5,113.0,5.3,'11111222,11111222,11111222' 
TCOON,ioos:station:TCOON:518:1,2014-06-01T05:36:00Z,29.5150,-94.5133,0.0,5.0,114.0,5.5,'11111222,11111222,11111222' 
TCOON,ioos:station:TCOON:518:1,2014-06-01T05:42:00Z,29.5150,-94.5133,0.0,4.2,116.0,5.7,'11111222,11111222,11111222' 
TCOON,ioos:station:TCOON:518:1,2014-06-01T05:48:00Z,29.5150,-94.5133,0.0,4.5,119.0,5.8,'11111222,11111222,11111222' 
TCOON,ioos:station:TCOON:518:1,2014-06-01T05:54:00Z,29.5150,-94.5133,0.0,4.2,113.0,4.9,'11111222,11111222,11111222' 
TCOON,ioos:station:TCOON:518:1,2014-06-01T06:00:00Z,29.5150,-94.5133,0.0,4.2,124.0,4.8,'11111222,11111222,11111222' 
TCOON,ioos:station:TCOON:518:1,2014-06-01T06:06:00Z,29.5150,-94.5133,0.0,3.7,113.0,5.1,'11111222,11111222,11111222' 
TCOON,ioos:station:TCOON:518:1,2014-06-01T06:12:00Z,29.5150,-94.5133,0.0,3.8,116.0,4.5,'11111222,11111222,11111222' 
TCOON,ioos:station:TCOON:518:1,2014-06-01T06:18:00Z,29.5150,-94.5133,0.0,3.2,116.0,4.4,'11111222,11111222,11111222' 
TCOON,ioos:station:TCOON:518:1,2014-06-01T06:24:00Z,29.5150,-94.5133,0.0,3.8,106.0,4.7,'11111222,11111222,11111222' 
TCOON,ioos:station:TCOON:518:1,2014-06-01T06:30:00Z,29.5150,-94.5133,0.0,3.8,106.0,4.7,'1111122,1111122,1111122' 
TCOON,ioos:station:TCOON:518:1,2014-06-01T06:36:00Z,29.5150,-94.5133,0.0,3.8,111.0,4.3,'11111222,11111222,11111222' 
TCOON,ioos:station:TCOON:518:1,2014-06-01T06:42:00Z,29.5150,-94.5133,0.0,3.4,115.0,5.1,'11111222,11111222,11111222' 
TCOON,ioos:station:TCOON:518:1,2014-06-01T06:48:00Z,29.5150,-94.5133,0.0,3.9,107.0,4.8,'11111222,11111222,11111222' 
TCOON,ioos:station:TCOON:518:1,2014-06-01T06:54:00Z,29.5150,-94.5133,0.0,3.9,108.0,4.6,'11111222,11111222,11111222' 
TCOON,ioos:station:TCOON:518:1,2014-06-01T07:00:00Z,29.5150,-94.5133,0.0,3.9,108.0,4.6,'1111122,1111122,1111122' 
TCOON,ioos:station:TCOON:518:1,2014-06-01T07:06:00Z,29.5150,-94.5133,0.0,4.4,101.0,5.4,'11111222,11111222,11111222' 
TCOON,ioos:station:TCOON:518:1,2014-06-01T07:12:00Z,29.5150,-94.5133,0.0,4.4,99.0,5.0,'11111222,11111222,11111222' 
TCOON,ioos:station:TCOON:518:1,2014-06-01T07:18:00Z,29.5150,-94.5133,0.0,3.7,104.0,4.6,'11111222,11111222,11111222' 
TCOON,ioos:station:TCOON:518:1,2014-06-01T07:24:00Z,29.5150,-94.5133,0.0,4.2,101.0,5.0,'11111222,11111222,11111222' 
TCOON,ioos:station:TCOON:518:1,2014-06-01T07:30:00Z,29.5150,-94.5133,0.0,3.2,44.0,4.2,'11111222,11111222,11111222' 
TCOON,ioos:station:TCOON:518:1,2014-06-01T07:36:00Z,29.5150,-94.5133,0.0,3.4,45.0,4.2,'11111222,11111222,11111222' 
TCOON,ioos:station:TCOON:518:1,2014-06-01T07:42:00Z,29.5150,-94.5133,0.0,2.8,42.0,4.3,'11111222,11111222,11111222' 
TCOON,ioos:station:TCOON:518:1,2014-06-01T07:48:00Z,29.5150,-94.5133,0.0,3.3,42.0,3.8,'11111222,11111222,11111222' 
TCOON,ioos:station:TCOON:518:1,2014-06-01T07:54:00Z,29.5150,-94.5133,0.0,2.9,51.0,3.6,'11111222,11111222,11111222' 
TCOON,ioos:station:TCOON:518:1,2014-06-01T08:00:00Z,29.5150,-94.5133,0.0,2.9,51.0,3.6,'1111122,1111122,1111122' 
TCOON,ioos:station:TCOON:518:1,2014-06-01T08:06:00Z,29.5150,-94.5133,0.0,2.8,55.0,3.5,'11111222,11111222,11111222' 
TCOON,ioos:station:TCOON:518:1,2014-06-01T08:12:00Z,29.5150,-94.5133,0.0,3.0,46.0,3.7,'11111222,11111222,11111222' 
TCOON,ioos:station:TCOON:518:1,2014-06-01T08:18:00Z,29.5150,-94.5133,0.0,2.7,36.0,3.4,'11111222,11111222,11111222' 
TCOON,ioos:station:TCOON:518:1,2014-06-01T08:24:00Z,29.5150,-94.5133,0.0,3.0,33.0,3.4,'11111222,11111222,11111222' 
TCOON,ioos:station:TCOON:518:1,2014-06-01T08:30:00Z,29.5150,-94.5133,0.0,2.8,38.0,3.5,'11111222,11111222,11111222' 
TCOON,ioos:station:TCOON:518:1,2014-06-01T08:36:00Z,29.5150,-94.5133,0.0,3.1,41.0,3.6,'11111222,11111222,11111222' 
TCOON,ioos:station:TCOON:518:1,2014-06-01T08:42:00Z,29.5150,-94.5133,0.0,3.9,47.0,4.1,'11111222,11111222,11111222' 
TCOON,ioos:station:TCOON:518:1,2014-06-01T08:48:00Z,29.5150,-94.5133,0.0,3.7,48.0,4.0,'11111222,11111222,11111222' 
TCOON,ioos:station:TCOON:518:1,2014-06-01T08:54:00Z,29.5150,-94.5133,0.0,3.4,48.0,4.1,'11111222,11111222,11111222' 
TCOON,ioos:station:TCOON:518:1,2014-06-01T09:00:00Z,29.5150,-94.5133,0.0,3.4,48.0,4.1,'1111122,1111122,1111122' 
TCOON,ioos:station:TCOON:518:1,2014-06-01T09:06:00Z,29.5150,-94.5133,0.0,2.6,44.0,3.5,'11111222,11111222,11111222' 
TCOON,ioos:station:TCOON:518:1,2014-06-01T09:12:00Z,29.5150,-94.5133,0.0,3.5,52.0,3.7,'11111222,11111222,11111222' 
TCOON,ioos:station:TCOON:518:1,2014-06-01T09:18:00Z,29.5150,-94.5133,0.0,3.4,47.0,4.1,'11111222,11111222,11111222' 
TCOON,ioos:station:TCOON:518:1,2014-06-01T09:24:00Z,29.5150,-94.5133,0.0,3.7,43.0,4.1,'11111222,11111222,11111222' 
TCOON,ioos:station:TCOON:518:1,2014-06-01T09:30:00Z,29.5150,-94.5133,0.0,3.5,44.0,4.0,'11111222,11111222,11111222' 
TCOON,ioos:station:TCOON:518:1,2014-06-01T09:36:00Z,29.5150,-94.5133,0.0,4.0,56.0,4.5,'11111222,11111222,11111222' 
TCOON,ioos:station:TCOON:518:1,2014-06-01T09:42:00Z,29.5150,-94.5133,0.0,3.7,55.0,4.6,'11111222,11111222,11111222' 
TCOON,ioos:station:TCOON:518:1,2014-06-01T09:48:00Z,29.5150,-94.5133,0.0,3.4,53.0,3.9,'11111222,11111222,11111222' 
TCOON,ioos:station:TCOON:518:1,2014-06-01T09:54:00Z,29.5150,-94.5133,0.0,3.5,50.0,4.1,'11111222,11111222,11111222' 
TCOON,ioos:station:TCOON:518:1,2014-06-01T10:00:00Z,29.5150,-94.5133,0.0,3.5,50.0,4.1,'1111122,1111122,1111122' 
TCOON,ioos:station:TCOON:518:1,2014-06-01T10:06:00Z,29.5150,-94.5133,0.0,3.1,41.0,3.5,'11111222,11111222,11111222' 
TCOON,ioos:station:TCOON:518:1,2014-06-01T10:12:00Z,29.5150,-94.5133,0.0,3.2,36.0,4.2,'11111222,11111222,11111222' 
TCOON,ioos:station:TCOON:518:1,2014-06-01T10:18:00Z,29.5150,-94.5133,0.0,2.5,47.0,3.4,'11111222,11111222,11111222' 
TCOON,ioos:station:TCOON:518:1,2014-06-01T10:24:00Z,29.5150,-94.5133,0.0,3.2,49.0,3.7,'11111222,11111222,11111222' 
TCOON,ioos:station:TCOON:518:1,2014-06-01T10:30:00Z,29.5150,-94.5133,0.0,3.2,36.0,3.6,'11111222,11111222,11111222' 
TCOON,ioos:station:TCOON:518:1,2014-06-01T10:36:00Z,29.5150,-94.5133,0.0,3.1,43.0,3.7,'11111222,11111222,11111222' 
TCOON,ioos:station:TCOON:518:1,2014-06-01T10:42:00Z,29.5150,-94.5133,0.0,3.4,41.0,3.9,'11111222,11111222,11111222' 
TCOON,ioos:station:TCOON:518:1,2014-06-01T10:48:00Z,29.5150,-94.5133,0.0,3.7,39.0,4.4,'11111222,11111222,11111222' 
TCOON,ioos:station:TCOON:518:1,2014-06-01T10:54:00Z,29.5150,-94.5133,0.0,4.8,42.0,5.5,'11111222,11111222,11111222' 
TCOON,ioos:station:TCOON:518:1,2014-06-01T11:00:00Z,29.5150,-94.5133,0.0,4.8,42.0,5.5,'1111122,1111122,1111122' 
TCOON,ioos:station:TCOON:518:1,2014-06-01T11:06:00Z,29.5150,-94.5133,0.0,3.2,46.0,4.1,'11111222,11111222,11111222' 
TCOON,ioos:station:TCOON:518:1,2014-06-01T11:12:00Z,29.5150,-94.5133,0.0,3.5,45.0,3.8,'11111222,11111222,11111222' 
TCOON,ioos:station:TCOON:518:1,2014-06-01T11:18:00Z,29.5150,-94.5133,0.0,3.5,32.0,4.0,'11111222,11111222,11111222' 
TCOON,ioos:station:TCOON:518:1,2014-06-01T11:24:00Z,29.5150,-94.5133,0.0,3.8,34.0,4.3,'11111222,11111222,11111222' 
TCOON,ioos:station:TCOON:518:1,2014-06-01T11:30:00Z,29.5150,-94.5133,0.0,3.0,40.0,4.1,'11111222,11111222,11111222' 
TCOON,ioos:station:TCOON:518:1,2014-06-01T11:36:00Z,29.5150,-94.5133,0.0,3.2,42.0,4.1,'11111222,11111222,11111222' 
TCOON,ioos:station:TCOON:518:1,2014-06-01T11:42:00Z,29.5150,-94.5133,0.0,3.4,39.0,4.2,'11111222,11111222,11111222' 
TCOON,ioos:station:TCOON:518:1,2014-06-01T11:48:00Z,29.5150,-94.5133,0.0,3.2,41.0,4.0,'11111222,11111222,11111222' 
TCOON,ioos:station:TCOON:518:1,2014-06-01T11:54:00Z,29.5150,-94.5133,0.0,2.0,50.0,3.2,'11111222,11111222,11111222' 
TCOON,ioos:station:TCOON:518:1,2014-06-01T12:00:00Z,29.5150,-94.5133,0.0,2.0,50.0,3.2,'1111122,1111122,1111122' 
TCOON,ioos:station:TCOON:518:1,2014-06-01T12:06:00Z,29.5150,-94.5133,0.0,3.0,50.0,3.5,'11111222,11111222,11111222' 
TCOON,ioos:station:TCOON:518:1,2014-06-01T12:12:00Z,29.5150,-94.5133,0.0,4.5,41.0,5.1,'11111222,11111222,11111222' 
TCOON,ioos:station:TCOON:518:1,2014-06-01T12:18:00Z,29.5150,-94.5133,0.0,3.1,43.0,4.3,'11111222,11111222,11111222' 
TCOON,ioos:station:TCOON:518:1,2014-06-01T12:24:00Z,29.5150,-94.5133,0.0,3.3,30.0,4.1,'11111222,11111222,11111222' 
TCOON,ioos:station:TCOON:518:1,2014-06-01T12:30:00Z,29.5150,-94.5133,0.0,3.9,26.0,4.5,'11111222,11111222,11111222' 
TCOON,ioos:station:TCOON:518:1,2014-06-01T12:36:00Z,29.5150,-94.5133,0.0,3.5,28.0,4.3,'11111222,11111222,11111222' 
TCOON,ioos:station:TCOON:518:1,2014-06-01T12:42:00Z,29.5150,-94.5133,0.0,4.7,29.0,5.4,'11111222,11111222,11111222' 
TCOON,ioos:station:TCOON:518:1,2014-06-01T12:48:00Z,29.5150,-94.5133,0.0,4.7,32.0,5.7,'11111222,11111222,11111222' 
TCOON,ioos:station:TCOON:518:1,2014-06-01T12:54:00Z,29.5150,-94.5133,0.0,3.1,53.0,5.0,'11111222,11111222,11111222' 
TCOON,ioos:station:TCOON:518:1,2014-06-01T13:00:00Z,29.5150,-94.5133,0.0,3.1,53.0,5.0,'1111122,1111122,1111122' 
TCOON,ioos:station:TCOON:518:1,2014-06-01T13:06:00Z,29.5150,-94.5133,0.0,1.6,83.0,3.2,'11111222,11111222,11111222' 
TCOON,ioos:station:TCOON:518:1,2014-06-01T13:12:00Z,29.5150,-94.5133,0.0,1.7,38.0,2.6,'11111222,11111222,11111222' 
TCOON,ioos:station:TCOON:518:1,2014-06-01T13:18:00Z,29.5150,-94.5133,0.0,3.5,138.0,4.0,'11111222,11111222,11111222' 
TCOON,ioos:station:TCOON:518:1,2014-06-01T13:24:00Z,29.5150,-94.5133,0.0,4.0,141.0,4.5,'11111222,11111222,11111222' 
TCOON,ioos:station:TCOON:518:1,2014-06-01T13:30:00Z,29.5150,-94.5133,0.0,4.6,141.0,5.6,'11111222,11111222,11111222' 
TCOON,ioos:station:TCOON:518:1,2014-06-01T13:36:00Z,29.5150,-94.5133,0.0,4.5,139.0,5.7,'11111222,11111222,11111222' 
TCOON,ioos:station:TCOON:518:1,2014-06-01T13:42:00Z,29.5150,-94.5133,0.0,4.9,137.0,5.8,'11111222,11111222,11111222' 
TCOON,ioos:station:TCOON:518:1,2014-06-01T13:48:00Z,29.5150,-94.5133,0.0,4.3,127.0,5.2,'11111222,11111222,11111222' 
TCOON,ioos:station:TCOON:518:1,2014-06-01T13:54:00Z,29.5150,-94.5133,0.0,5.0,126.0,5.7,'11111222,11111222,11111222' 
TCOON,ioos:station:TCOON:518:1,2014-06-01T14:00:00Z,29.5150,-94.5133,0.0,5.0,126.0,5.7,'1111122,1111122,1111122' 
TCOON,ioos:station:TCOON:518:1,2014-06-01T14:06:00Z,29.5150,-94.5133,0.0,4.7,130.0,5.6,'11111222,11111222,11111222' 
TCOON,ioos:station:TCOON:518:1,2014-06-01T14:12:00Z,29.5150,-94.5133,0.0,4.3,138.0,5.0,'11111222,11111222,11111222' 
TCOON,ioos:station:TCOON:518:1,2014-06-01T14:18:00Z,29.5150,-94.5133,0.0,4.8,137.0,5.5,'11111222,11111222,11111222' 
TCOON,ioos:station:TCOON:518:1,2014-06-01T14:24:00Z,29.5150,-94.5133,0.0,4.1,140.0,5.7,'11111222,11111222,11111222' 
TCOON,ioos:station:TCOON:518:1,2014-06-01T14:30:00Z,29.5150,-94.5133,0.0,5.0,140.0,6.1,'11111222,11111222,11111222' 
TCOON,ioos:station:TCOON:518:1,2014-06-01T14:36:00Z,29.5150,-94.5133,0.0,3.7,145.0,5.4,'11111222,11111222,11111222' 
TCOON,ioos:station:TCOON:518:1,2014-06-01T14:42:00Z,29.5150,-94.5133,0.0,5.1,124.0,6.1,'11111222,11111222,11111222' 
TCOON,ioos:station:TCOON:518:1,2014-06-01T14:48:00Z,29.5150,-94.5133,0.0,5.5,131.0,6.1,'11111222,11111222,11111222' 
TCOON,ioos:station:TCOON:518:1,2014-06-01T14:54:00Z,29.5150,-94.5133,0.0,4.8,132.0,6.0,'11111222,11111222,11111222' 
TCOON,ioos:station:TCOON:518:1,2014-06-01T15:00:00Z,29.5150,-94.5133,0.0,4.8,132.0,6.0,'1111122,1111122,1111122' 
TCOON,ioos:station:TCOON:518:1,2014-06-01T15:06:00Z,29.5150,-94.5133,0.0,4.9,133.0,6.1,'11111222,11111222,11111222' 
TCOON,ioos:station:TCOON:518:1,2014-06-01T15:12:00Z,29.5150,-94.5133,0.0,4.5,131.0,6.1,'11111222,11111222,11111222' 
TCOON,ioos:station:TCOON:518:1,2014-06-01T15:18:00Z,29.5150,-94.5133,0.0,5.0,136.0,5.7,'11111222,11111222,11111222' 
TCOON,ioos:station:TCOON:518:1,2014-06-01T15:24:00Z,29.5150,-94.5133,0.0,5.3,133.0,6.2,'11111222,11111222,11111222' 
TCOON,ioos:station:TCOON:518:1,2014-06-01T15:30:00Z,29.5150,-94.5133,0.0,4.8,138.0,6.0,'11111222,11111222,11111222' 
TCOON,ioos:station:TCOON:518:1,2014-06-01T15:36:00Z,29.5150,-94.5133,0.0,4.2,135.0,6.4,'11111222,11111222,11111222' 
TCOON,ioos:station:TCOON:518:1,2014-06-01T15:42:00Z,29.5150,-94.5133,0.0,4.4,131.0,5.5,'11111222,11111222,11111222' 
TCOON,ioos:station:TCOON:518:1,2014-06-01T15:48:00Z,29.5150,-94.5133,0.0,4.0,134.0,5.6,'11111222,11111222,11111222' 
TCOON,ioos:station:TCOON:518:1,2014-06-01T15:54:00Z,29.5150,-94.5133,0.0,4.5,127.0,5.2,'11111222,11111222,11111222' 
TCOON,ioos:station:TCOON:518:1,2014-06-01T16:00:00Z,29.5150,-94.5133,0.0,4.5,127.0,5.2,'1111122,1111122,1111122' 
TCOON,ioos:station:TCOON:518:1,2014-06-01T16:06:00Z,29.5150,-94.5133,0.0,4.7,138.0,5.3,'11111222,11111222,11111222' 
TCOON,ioos:station:TCOON:518:1,2014-06-01T16:12:00Z,29.5150,-94.5133,0.0,5.1,120.0,6.0,'11111222,11111222,11111222' 
TCOON,ioos:station:TCOON:518:1,2014-06-01T16:18:00Z,29.5150,-94.5133,0.0,5.3,132.0,6.4,'11111222,11111222,11111222' 
TCOON,ioos:station:TCOON:518:1,2014-06-01T16:24:00Z,29.5150,-94.5133,0.0,5.1,126.0,6.0,'11111222,11111222,11111222' 
TCOON,ioos:station:TCOON:518:1,2014-06-01T16:30:00Z,29.5150,-94.5133,0.0,5.8,138.0,6.6,'11111222,11111222,11111222' 
TCOON,ioos:station:TCOON:518:1,2014-06-01T16:36:00Z,29.5150,-94.5133,0.0,5.4,134.0,6.2,'11111222,11111222,11111222' 
TCOON,ioos:station:TCOON:518:1,2014-06-01T16:42:00Z,29.5150,-94.5133,0.0,5.1,136.0,6.7,'11111222,11111222,11111222' 
TCOON,ioos:station:TCOON:518:1,2014-06-01T16:48:00Z,29.5150,-94.5133,0.0,5.6,130.0,6.5,'11111222,11111222,11111222' 
TCOON,ioos:station:TCOON:518:1,2014-06-01T16:54:00Z,29.5150,-94.5133,0.0,4.9,118.0,6.5,'11111222,11111222,11111222' 
TCOON,ioos:station:TCOON:518:1,2014-06-01T17:00:00Z,29.5150,-94.5133,0.0,4.9,118.0,6.5,'1111122,1111122,1111122' 
TCOON,ioos:station:TCOON:518:1,2014-06-01T17:06:00Z,29.5150,-94.5133,0.0,5.3,128.0,6.0,'11111222,11111222,11111222' 
TCOON,ioos:station:TCOON:518:1,2014-06-01T17:12:00Z,29.5150,-94.5133,0.0,5.3,132.0,6.5,'11111222,11111222,11111222' 
TCOON,ioos:station:TCOON:518:1,2014-06-01T17:18:00Z,29.5150,-94.5133,0.0,5.5,128.0,6.4,'11111222,11111222,11111222' 
TCOON,ioos:station:TCOON:518:1,2014-06-01T17:24:00Z,29.5150,-94.5133,0.0,5.2,128.0,6.5,'11111222,11111222,11111222' 
TCOON,ioos:station:TCOON:518:1,2014-06-01T17:30:00Z,29.5150,-94.5133,0.0,6.0,126.0,7.1,'11111222,11111222,11111222' 
TCOON,ioos:station:TCOON:518:1,2014-06-01T17:36:00Z,29.5150,-94.5133,0.0,6.3,123.0,7.3,'11111222,11111222,11111222' 
TCOON,ioos:station:TCOON:518:1,2014-06-01T17:42:00Z,29.5150,-94.5133,0.0,6.3,123.0,7.1,'11111222,11111222,11111222' 
TCOON,ioos:station:TCOON:518:1,2014-06-01T17:48:00Z,29.5150,-94.5133,0.0,6.1,128.0,7.1,'11111222,11111222,11111222' 
TCOON,ioos:station:TCOON:518:1,2014-06-01T17:54:00Z,29.5150,-94.5133,0.0,6.3,127.0,7.4,'11111222,11111222,11111222' 
TCOON,ioos:station:TCOON:518:1,2014-06-01T18:00:00Z,29.5150,-94.5133,0.0,6.3,127.0,7.4,'1111122,1111122,1111122' 
TCOON,ioos:station:TCOON:518:1,2014-06-01T18:06:00Z,29.5150,-94.5133,0.0,6.3,120.0,7.8,'11111222,11111222,11111222' 
TCOON,ioos:station:TCOON:518:1,2014-06-01T18:12:00Z,29.5150,-94.5133,0.0,5.9,122.0,7.4,'11111222,11111222,11111222' 
TCOON,ioos:station:TCOON:518:1,2014-06-01T18:18:00Z,29.5150,-94.5133,0.0,7.1,125.0,8.1,'11111222,11111222,11111222' 
TCOON,ioos:station:TCOON:518:1,2014-06-01T18:24:00Z,29.5150,-94.5133,0.0,6.9,123.0,7.7,'11111222,11111222,11111222' 
TCOON,ioos:station:TCOON:518:1,2014-06-01T18:30:00Z,29.5150,-94.5133,0.0,6.2,122.0,7.7,'11111222,11111222,11111222' 
TCOON,ioos:station:TCOON:518:1,2014-06-01T18:36:00Z,29.5150,-94.5133,0.0,6.5,126.0,7.7,'11111222,11111222,11111222' 
TCOON,ioos:station:TCOON:518:1,2014-06-01T18:42:00Z,29.5150,-94.5133,0.0,6.8,118.0,7.8,'11111222,11111222,11111222' 
TCOON,ioos:station:TCOON:518:1,2014-06-01T18:48:00Z,29.5150,-94.5133,0.0,6.3,124.0,7.3,'11111222,11111222,11111222' 
TCOON,ioos:station:TCOON:518:1,2014-06-01T18:54:00Z,29.5150,-94.5133,0.0,6.8,119.0,8.1,'11111222,11111222,11111222' 
TCOON,ioos:station:TCOON:518:1,2014-06-01T19:00:00Z,29.5150,-94.5133,0.0,6.8,119.0,8.1,'1111122,1111122,1111122' 
TCOON,ioos:station:TCOON:518:1,2014-06-01T19:06:00Z,29.5150,-94.5133,0.0,6.6,128.0,8.3,'11111222,11111222,11111222' 
TCOON,ioos:station:TCOON:518:1,2014-06-01T19:12:00Z,29.5150,-94.5133,0.0,6.6,118.0,7.4,'11111222,11111222,11111222' 
TCOON,ioos:station:TCOON:518:1,2014-06-01T19:18:00Z,29.5150,-94.5133,0.0,6.4,127.0,7.9,'11111222,11111222,11111222' 
TCOON,ioos:station:TCOON:518:1,2014-06-01T19:24:00Z,29.5150,-94.5133,0.0,6.4,122.0,7.6,'11111222,11111222,11111222' 
TCOON,ioos:station:TCOON:518:1,2014-06-01T19:30:00Z,29.5150,-94.5133,0.0,6.5,126.0,7.9,'11111222,11111222,11111222' 
TCOON,ioos:station:TCOON:518:1,2014-06-01T19:36:00Z,29.5150,-94.5133,0.0,7.3,119.0,8.1,'11111222,11111222,11111222' 
TCOON,ioos:station:TCOON:518:1,2014-06-01T19:42:00Z,29.5150,-94.5133,0.0,6.5,119.0,7.8,'11111222,11111222,11111222' 
TCOON,ioos:station:TCOON:518:1,2014-06-01T19:48:00Z,29.5150,-94.5133,0.0,6.3,118.0,8.3,'11111222,11111222,11111222' 
TCOON,ioos:station:TCOON:518:1,2014-06-01T19:54:00Z,29.5150,-94.5133,0.0,7.4,119.0,8.3,'11111222,11111222,11111222' 
TCOON,ioos:station:TCOON:518:1,2014-06-01T20:00:00Z,29.5150,-94.5133,0.0,7.4,119.0,8.3,'1111122,1111122,1111122' 
TCOON,ioos:station:TCOON:518:1,2014-06-01T20:06:00Z,29.5150,-94.5133,0.0,7.4,130.0,8.7,'11111222,11111222,11111222' 
TCOON,ioos:station:TCOON:518:1,2014-06-01T20:12:00Z,29.5150,-94.5133,0.0,7.9,128.0,9.2,'11111222,11111222,11111222' 
TCOON,ioos:station:TCOON:518:1,2014-06-01T20:18:00Z,29.5150,-94.5133,0.0,8.1,127.0,9.1,'11111222,11111222,11111222' 
TCOON,ioos:station:TCOON:518:1,2014-06-01T20:24:00Z,29.5150,-94.5133,0.0,8.2,126.0,9.3,'11111222,11111222,11111222' 